{"data":{"norad_id":47374,"intl_designator":"2021-005AB","name":"STARLINK-2093","alt_names":[],"object_type":"PAYLOAD","status":"ACTIVE","operator":null,"country":"US","launch_date":"2021-01-20","launch_site_code":"AFETR","launch_vehicle":null,"mission":null,"orbit_class":"UNKNOWN","rcs_meters":null,"size_class":null,"mass_kg":null,"dimensions":null,"purposes":["comms"],"wikipedia_slug":null,"has_3d_model":false,"image_url":null,"decayed_at":null,"tle_current":{"epoch":"2026-05-25T03:46:53.412096Z","epoch_age_seconds":55305,"freshness":"FRESH","line1":"1 47374U 21005AB  26145.15756264  .00139274  00000+0  58023-3 0  9993","line2":"2 47374  53.0453  24.9411 0003980 110.3662 249.7788 15.84796638295319","mean_motion":15.84796638,"eccentricity":0.000398,"inclination_deg":53.0453,"raan_deg":24.9411,"arg_perigee_deg":110.3662,"mean_anomaly_deg":249.7788,"bstar":0.00058023,"rev_number":29531,"period_min":90.863393161741,"perigee_km":314.23279214555,"apogee_km":319.56203954056,"semimajor_km":6695.0344158431,"source":"CELESTRAK","updated_at":"2026-05-25T13:38:16.527120Z"}}}